Andalusia, AL

6:15 PM CST on February 06, 2016 (GMT -0600)
Andalusia

Weather History for K79J - September, 2013

Change the Weather History Date:

Wednesday, September 25, 2013

  Actual Average (KCEW) Record (KCEW)
Temperature  
Mean Temperature 80 °F -  
Max Temperature 86 °F 83 °F 94 °F (1980)
Min Temperature 73 °F 62 °F 42 °F (1990)
Cooling Degree Days 14    
Growing Degree Days 30 (Base 50)    
Moisture  
Dew Point 71 °F    
Average Humidity 83    
Maximum Humidity 94    
Minimum Humidity 55    
Precipitation  
Precipitation 0.24 in - - ()
Sea Level Pressure  
Sea Level Pressure 29.80 in    
Wind  
Wind Speed 3 mph (East)    
Max Wind Speed 8 mph    
Max Gust Speed -    
Averages and records for this station are not official NWS values.
T = Trace of Precipitation, MM = Missing Value Source: NWS Daily Summary

Daily Weather History Graph

Daily Weather History Graph

Search for Another Location

Airport or City:

Trip Planner

Search our weather history database for the weather conditions in past years. The results will help you decide how hot, cold, wet, or windy it might be!

Date:

Astronomy

Sep. 25, 2013 Rise Set
Actual Time 6:35 AM CDT 6:37 PM CDT
Civil Twilight 6:11 AM CDT 7:02 PM CDT
Nautical Twilight 5:43 AM CDT 7:30 PM CDT
Astronomical Twilight 5:14 AM CDT 7:58 PM CDT
Moon 11:03 PM CDT (9/25) 12:21 PM CDT (9/25)
Length of Visible Light 12h 50m
Length of Day
12h 02m
Waning Gibbous, 64% of the Moon is Illuminated
Sep 25
Waning Gibbous
Sep 26
Last Quarter
Oct 4
New
Oct 11
First Quarter
Oct 18
Full

Hourly Weather History & Observations

Time (CDT) Temp. Heat Index Dew Point Humidity Pressure Visibility Wind Dir Wind Speed Gust Speed Precip Events Conditions
12:56 AM 75.9 °F - 72.0 °F 87% 29.78 in - Variable 6.9 mph - N/A   Overcast
1:56 AM 75.0 °F - 71.1 °F 87% 29.79 in - SSE 3.5 mph - N/A   Overcast
2:34 AM 75.2 °F - 71.6 °F 89% 29.79 in - SE 3.5 mph - N/A   Overcast
2:56 AM 73.9 °F - 71.1 °F 91% 29.79 in - SE 3.5 mph - N/A   Overcast
3:56 AM 73.9 °F - 71.1 °F 91% 29.78 in - Calm Calm - N/A   Overcast
4:04 AM 73.4 °F - 71.6 °F 94% 29.79 in - Calm Calm - N/A   Overcast
4:17 AM 73.4 °F - 71.6 °F 94% 29.79 in - ESE 4.6 mph - N/A   Overcast
4:27 AM 73.4 °F - 71.6 °F 94% 29.79 in - ESE 4.6 mph - N/A   Overcast
4:56 AM 73.9 °F - 71.1 °F 91% 29.78 in - ESE 3.5 mph - N/A   Overcast
5:11 AM 73.4 °F - 71.6 °F 94% 29.79 in - ESE 4.6 mph - 0.02 in Rain Rain
5:15 AM 73.4 °F - 71.6 °F 94% 29.79 in - East 3.5 mph - 0.02 in Rain Light Rain
5:22 AM 73.4 °F - 71.6 °F 94% 29.79 in - Calm Calm - 0.02 in Rain Light Rain
5:49 AM 73.4 °F - 71.6 °F 94% 29.80 in - Calm Calm - 0.03 in Rain Light Rain
5:56 AM 73.9 °F - 71.1 °F 91% 29.79 in - Calm Calm - 0.03 in Rain Light Rain
6:14 AM 73.4 °F - 71.6 °F 94% 29.79 in - East 4.6 mph - 0.11 in Rain Heavy Rain
6:50 AM 73.4 °F - 71.6 °F 94% 29.80 in - SSE 4.6 mph - 0.21 in   Overcast
6:56 AM 73.9 °F - 71.1 °F 91% 29.80 in - SE 4.6 mph - 0.21 in Rain Light Rain
7:56 AM 73.9 °F - 71.1 °F 91% 29.81 in - Calm Calm - 0.00 in   Overcast
8:56 AM 75.0 °F - 72.0 °F 90% 29.81 in - SSE 4.6 mph - N/A   Overcast
9:44 AM 77.0 °F - 71.6 °F 83% 29.83 in - Calm Calm - N/A   Overcast
9:56 AM 77.0 °F - 72.0 °F 84% 29.82 in - Calm Calm - N/A   Overcast
10:22 AM 78.8 °F - 71.6 °F 78% 29.83 in - Calm Calm - N/A   Overcast
10:56 AM 78.1 °F - 72.0 °F 81% 29.82 in - Calm Calm - N/A   Overcast
11:15 AM 80.6 °F 84.6 °F 71.6 °F 74% 29.83 in - Calm Calm - N/A   Overcast
11:28 AM 80.6 °F 84.6 °F 71.6 °F 74% 29.83 in - North 6.9 mph - N/A   Overcast
11:56 AM 81.0 °F 85.2 °F 72.0 °F 74% 29.81 in - North 5.8 mph - N/A   Overcast
12:25 PM 82.4 °F 87.2 °F 71.6 °F 70% 29.81 in - NNW 5.8 mph - N/A   Mostly Cloudy
1:56 PM 84.9 °F 89.4 °F 70.0 °F 61% 29.77 in - NW 8.1 mph - N/A   Unknown
2:56 PM 86.0 °F 89.4 °F 68.0 °F 55% 29.74 in - WNW 5.8 mph - N/A   Partly Cloudy
3:56 PM 86.0 °F 89.4 °F 68.0 °F 55% 29.74 in - WNW 4.6 mph - N/A   Partly Cloudy
4:56 PM 86.0 °F 89.4 °F 68.0 °F 55% 29.75 in - WNW 6.9 mph - N/A   Scattered Clouds
5:56 PM 84.0 °F 88.4 °F 70.0 °F 63% 29.76 in - NNW 5.8 mph - N/A   Clear
6:56 PM 81.0 °F 84.9 °F 71.1 °F 72% 29.78 in - Calm Calm - N/A   Clear
7:56 PM 75.9 °F - 72.0 °F 87% 29.80 in - Calm Calm - N/A   Clear
8:56 PM 75.0 °F - 71.1 °F 87% 29.81 in - Calm Calm - N/A   Clear
9:56 PM 73.9 °F - 70.0 °F 87% 29.82 in - Calm Calm - N/A   Clear
10:56 PM 73.0 °F - 69.1 °F 87% 29.82 in - Calm Calm - N/A   Clear
11:56 PM 73.0 °F - 69.1 °F 87% 29.82 in - Calm Calm - N/A   Clear